STARLINK-1962

operational
NORAD ID: 47563 Int'l Des: 2021-009 Owner: SPXS Country: US Constellation: starlink
LEOCIRCULARSTARLINK_TYPE

STARLINK-1962について

説明を読み込み中...

リアルタイム位置

3D地球を読み込み中...

次回通過

高度履歴

Altitude vs Time

uPlot chart will show altitude changes over time

軌道要素

1 47563U 21009R 25248.05756421 .00014734 00000-0 10065-2 0 9991
2 47563 53.0539 134.9578 0001579 109.9333 250.1826 15.06378021252814
Epoch: Sep 5, 2025 • Age: 18 hours

現在のステータス

高度 552.7 km
速度 7.59 km/s
衛星直下点 -19.78°S, 44.91°E
打ち上げ日 Feb 4, 2021
運用期間 4.5 years
タイプ internet

技術仕様

分類 Payload
質量 260.00 kg
乾燥質量 248.00 kg
総質量 260.00 kg
長さ 0.20 m
直径 2.80 m
スパン 9.00 m
形状 Box + pan
製造者 SPXS
バスタイプ Starlink
フェーズステータス In Orbit
所有者/国 SPXS/US

大規模コンステレーション

Loading constellations...